Location: Wells
(51.2093°N, 2.6446°W)
Time: 07:39:07
(UTC+01:00)

SO-50 - Pass Details

Date: 22 March 2026
Orbit: 567 x 673 km, 64.6° (Epoch: 17 April)

Event Time Altitude Azimuth Distance (km) Brightness Sun altitude
Rises 20:22:36 0° 298° (WNW) 3,008 ? -18.3°
Reaches altitude 10° 20:25:44 10° 319° (NW) 2,106 ? -18.7°
Maximum altitude 20:28:47 17° 359° (N) 1,715 ? -19.1°
Drops below altitude 10° 20:31:51 10° 39° (NE) 2,115 ? -19.6°
Enters shadow 20:32:54 - 48° (NE) 2,383 ? -19.7°
